This is the latest recevied weather packets stored in our database for station/object N3TTT-13. If no packets are shown the sender has not sent any weather packets the latest 10 day(s).
| Time | Temp. | Humidity | Pressure | Rain* | Wind** | Luminosity | Snow |
|---|---|---|---|---|---|---|---|
| 1777837936 | 14.44° C | 41% | 1014.6 hPa | 0 mm | - | 58 W/m² | - |
| 1777837634 | 14.44° C | 41% | 1014.5 hPa | 0 mm | - | 63 W/m² | - |
| 1777837329 | 14.44° C | 40% | 1014.5 hPa | 0 mm | - | 52 W/m² | - |
| 1777837026 | 14.44° C | 42% | 1014.4 hPa | 0 mm | - | 72 W/m² | - |
| 1777836722 | 14.44° C | 38% | 1014.5 hPa | 0 mm | - | 120 W/m² | - |
| 1777836417 | 14.44° C | 39% | 1014.9 hPa | 0 mm | - | 523 W/m² | - |
| 1777836113 | 15° C | 38% | 1014.8 hPa | 0 mm | - | 541 W/m² | - |
| 1777835809 | 14.44° C | 41% | 1014.8 hPa | 0 mm | - | 546 W/m² | - |
| 1777835507 | 15° C | 37% | 1014.8 hPa | 0 mm | - | 546 W/m² | - |
| 1777835204 | 15° C | 40% | 1014.8 hPa | 0 mm | - | 572 W/m² | - |
| 1777834901 | 15° C | 37% | 1014.5 hPa | 0 mm | - | 546 W/m² | - |
| 1777834597 | 14.44° C | 39% | 1014.8 hPa | 0 mm | - | 573 W/m² | - |
| 1777834292 | 13.89° C | 39% | 1015 hPa | 0 mm | - | 574 W/m² | - |
| 1777833988 | 14.44° C | 40% | 1014.9 hPa | 0 mm | - | 533 W/m² | - |
| 1777833685 | 13.89° C | 39% | 1015.2 hPa | 0 mm | - | 523 W/m² | - |
| 1777833381 | 14.44° C | 42% | 1015.2 hPa | 0 mm | - | 507 W/m² | - |
| 1777833078 | 13.89° C | 39% | 1014.8 hPa | 0 mm | - | 472 W/m² | - |
| 1777832777 | 13.89° C | 39% | 1015.2 hPa | 0 mm | - | 503 W/m² | - |
| 1777832475 | 13.33° C | 40% | 1015 hPa | 0 mm | - | 596 W/m² | - |
| 1777832171 | 13.89° C | 42% | 1015.2 hPa | 0 mm | - | 609 W/m² | - |
| 1777831868 | 13.89° C | 43% | 1015.5 hPa | 0 mm | - | 538 W/m² | - |
| 1777831565 | 13.89° C | 41% | 1015.4 hPa | 0 mm | - | 540 W/m² | - |
| 1777831263 | 13.89° C | 42% | 1015.3 hPa | 0 mm | - | 590 W/m² | - |
| 1777830959 | 13.33° C | 41% | 1015.4 hPa | 0 mm | - | 632 W/m² | - |
| 1777830657 | 14.44° C | 44% | 1015.3 hPa | 0 mm | - | 632 W/m² | - |
* Rain latest hour (hover to see other rain measurements)
** Current wind speed in m/s (hover to see current wind gust speed)